User: anonymous   Login
Location: Unspecified
(0.0000°N, 0.0000°E)
Time: 09:07:29
(UTC+00:00)
Language:

LANDSAT 8 - Orbit

View from above orbital plane
View from above orbital plane
View from above satellite
View from above satellite

Ground track
Ground track

The orbit data is extracted from the following two-line orbital elements,

1 39084U 13008A   16204.75060592  .00000066  00000-0  24806-4 0  9999
2 39084  98.2219 274.0009 0001333  97.0413 263.0937 14.57107490183081
Epoch (UTC): 22 July 2016 18:00:52
Eccentricity: 0.0001333
inclination: 98.2219°
perigee height: 701 km
apogee height: 703 km
right ascension of ascending node: 274.0009°
argument of perigee: 97.0413°
revolutions per day: 14.57107490
mean anomaly at epoch: 263.0937°
orbit number at epoch: 18308

The dashed part of the orbit path shows where the satellite is in the earth's shadow,  

DLR